Flag for Norway Weather past 2 weeks in Hamar, Norway

Now
55 °F

Cool.


Feels Like: 55 °F
Forecast: 49 / 55 °F
Wind: 2 mph from Northwest

Location: Haugedalshogda

Current Time: Aug 22, 2014 at 6:06:01 PM

Latest Report: Aug 22, 2014 at 5:00 PM


Visibility: N/A

Pressure: 29.68 "Hg

Humidity: 71%

Dew point: 45 °F

Location of HamarLocation

Historic Weather in Hamar — Graph

°F

Hamar temperature yesterday

Maximum temperature yesterday: 66 °F (at 3:00 PM)
Minimum temperature yesterday: 41 °F (at 6:00 AM)
Average temperature yesterday: 53 °F

Past Weeks' High & Low Weather Summary

 TemperatureHumidityPressure
High76 °F (Aug 9, 4:00 PM)95% (Aug 9, 6:00 AM)29.94 "Hg (Aug 9, 6:00 AM)
Low39 °F (Aug 18, 11:00 PM)34% (Aug 9, 3:00 PM)29.18 "Hg (Aug 18, 4:00 PM)
Average56 °F77%29.59 "Hg
* Reported Aug 7 4:00 PM — Aug 22 4:00 PM, Hamar, Weather by CustomWeather, © 2014

Note: Actual official high and low records may vary slightly from our data, if they occured in-between our weather recording intervals... More about our weather records

Advertising

Hamar weather history for previous 24 hours

 ConditionsComfort  
Time TempWeatherWind HumidityBarometerVisibility
4:00 PM
Aug 22
60 °FRefreshingly cool.8 mph57%29.66 "HgN/A
3:00 PM61 °FRefreshingly cool.5 mph57%29.66 "HgN/A
2:00 PM61 °FRefreshingly cool.5 mph58%29.67 "HgN/A
1:00 PM60 °FCool.3 mph62%29.67 "HgN/A
12:00 PM57 °FCool.1 mph72%29.69 "HgN/A
11:00 AM58 °FCool.1 mph65%29.69 "HgN/A
10:00 AM56 °FCool.1 mph73%29.69 "HgN/A
9:00 AM53 °FCool.1 mph86%29.69 "HgN/A
8:00 AM51 °FCool.1 mph93%29.70 "HgN/A
7:00 AM47 °FCool.1 mph93%29.70 "HgN/A
6:00 AM47 °FCool.1 mph93%29.70 "HgN/A
5:00 AM46 °FCool.1 mph92%29.70 "HgN/A
4:00 AM49 °FCool.2 mph91%29.70 "HgN/A
3:00 AM48 °FCool.1 mph92%29.71 "HgN/A
2:00 AM48 °FCool.1 mph92%29.70 "HgN/A
1:00 AM49 °FCool.1 mph92%29.69 "HgN/A
12:00 AM48 °FCool.No wind93%29.69 "HgN/A
11:00 PM
Aug 21
47 °FCool.1 mph93%29.68 "HgN/A
10:00 PM47 °FCool.1 mph90%29.67 "HgN/A
9:00 PM51 °FCool.1 mph88%29.65 "HgN/A
8:00 PM56 °FCool.1 mph78%29.63 "HgN/A
7:00 PM56 °FCool.2 mph77%29.63 "HgN/A
6:00 PM60 °FCool.1 mph66%29.60 "HgN/A
Weather by CustomWeather, © 2014

See weather overviewHow to use our weather pages